When you browse on this site, cookies collect data to enhance your experience and personalize the content and advertising you see.
Visit our Privacy Policy to learn more. By continuing to use the site, you agree to this use of cookies and data.
  • In Latvia
  • List of Countries
  • For 7 days
  • Water Temperature
  • Satellite Maps
  • Weather Map
  • Weather Widgets
  • user-avatar
    Login

    Hourly Weather Sierre

    Today, 24 July, Wednesday

    Time Temperature Precipitation Wind Pressure Humidity
    00:00 +22°C° 0 mm 1 mps 683 mmHg 86%
    01:00 +21°C° 0 mm 1 mps 682 mmHg 86%
    02:00 +21°C° 0 mm 1 mps 682 mmHg 86%
    03:00 +21°C° 0 mm 1 mps 682 mmHg 86%
    04:00 +20°C° 0 mm 1 mps 682 mmHg 86%
    05:00 +22°C° 0 mm 1 mps 682 mmHg 83%
    06:00 +21°C° 0 mm 0 mps 682 mmHg 80%
    07:00 +22°C° 0 mm 0 mps 683 mmHg 77%
    08:00 +26°C° 0 mm 1 mps 683 mmHg 66%
    09:00 +28°C° 0 mm 1 mps 683 mmHg 55%
    10:00 +30°C° 0 mm 1 mps 684 mmHg 44%
    11:00 +31°C° 0 mm 1 mps 684 mmHg 40%
    12:00 +32°C° 0 mm 1 mps 684 mmHg 36%
    13:00 +33°C° 0 mm 1 mps 684 mmHg 33%
    14:00 +32°C° 0 mm 2 mps 684 mmHg 34%
    15:00 +32°C° 0 mm 2 mps 683 mmHg 36%
    16:00 +32°C° 0 mm 2 mps 683 mmHg 37%
    17:00 +30°C° 0.1 mm 2 mps 683 mmHg 46%
    18:00 +29°C° 0.1 mm 1 mps 682 mmHg 56%
    19:00 +27°C° 0.1 mm 1 mps 682 mmHg 65%
    20:00 +26°C° 0 mm 1 mps 682 mmHg 67%
    21:00 +24°C° 0 mm 1 mps 682 mmHg 69%
    22:00 +23°C° 0 mm 1 mps 682 mmHg 71%
    23:00 +22°C° 0 mm 1 mps 682 mmHg 72%

    Tomorrow, 25 July, Thursday

    Time Temperature Precipitation Wind Pressure Humidity
    00:00 +20°C° 0 mm 0 mps 682 mmHg 72%
    01:00 +20°C° 0 mm 0 mps 682 mmHg 73%
    02:00 +21°C° 0 mm 1 mps 682 mmHg 73%
    03:00 +21°C° 0 mm 1 mps 682 mmHg 73%
    04:00 +21°C° 0 mm 1 mps 682 mmHg 73%
    05:00 +22°C° 0 mm 1 mps 682 mmHg 71%
    06:00 +24°C° 0 mm 1 mps 682 mmHg 69%
    07:00 +25°C° 0 mm 1 mps 682 mmHg 67%
    08:00 +27°C° 0.1 mm 1 mps 683 mmHg 61%
    09:00 +29°C° 0.1 mm 1 mps 683 mmHg 55%
    10:00 +31°C° 0.1 mm 1 mps 683 mmHg 49%
    11:00 +31°C° 0.7 mm 1 mps 683 mmHg 49%
    12:00 +31°C° 0.7 mm 1 mps 683 mmHg 50%
    13:00 +31°C° 0.7 mm 1 mps 682 mmHg 51%
    14:00 +30°C° 0.6 mm 1 mps 682 mmHg 53%
    15:00 +29°C° 0.6 mm 1 mps 682 mmHg 56%
    16:00 +28°C° 0.6 mm 1 mps 681 mmHg 58%
    17:00 +27°C° 0.6 mm 1 mps 681 mmHg 64%
    18:00 +26°C° 0.6 mm 1 mps 681 mmHg 70%
    19:00 +25°C° 0.6 mm 1 mps 681 mmHg 75%
    20:00 +24°C° 0.1 mm 1 mps 681 mmHg 75%
    21:00 +24°C° 0.1 mm 1 mps 681 mmHg 75%
    22:00 +23°C° 0.1 mm 1 mps 681 mmHg 74%
    23:00 +22°C° 0.1 mm 1 mps 681 mmHg 75%

    Day after tomorrow, 26 July, Friday

    Time Temperature Precipitation Wind Pressure Humidity
    00:00 +22°C° 0.1 mm 1 mps 680 mmHg 75%
    01:00 +21°C° 0.1 mm 1 mps 680 mmHg 76%
    02:00 +21°C° 0 mm 1 mps 680 mmHg 75%
    03:00 +21°C° 0 mm 1 mps 679 mmHg 74%
    04:00 +20°C° 0 mm 1 mps 679 mmHg 74%
    05:00 +22°C° 0 mm 1 mps 679 mmHg 71%
    06:00 +21°C° 0 mm 0 mps 679 mmHg 69%
    07:00 +22°C° 0 mm 0 mps 680 mmHg 66%
    08:00 +24°C° 0.1 mm 0 mps 680 mmHg 61%
    09:00 +28°C° 0.1 mm 1 mps 680 mmHg 56%
    10:00 +29°C° 0.1 mm 1 mps 680 mmHg 51%
    11:00 +29°C° 0.8 mm 1 mps 680 mmHg 52%
    12:00 +30°C° 0.8 mm 1 mps 679 mmHg 52%
    13:00 +30°C° 0.8 mm 1 mps 679 mmHg 53%
    14:00 +29°C° 1.6 mm 1 mps 678 mmHg 58%
    15:00 +28°C° 1.6 mm 1 mps 678 mmHg 63%
    16:00 +27°C° 1.6 mm 1 mps 677 mmHg 68%
    17:00 +25°C° 2.6 mm 2 mps 677 mmHg 75%
    18:00 +23°C° 2.6 mm 2 mps 676 mmHg 81%
    19:00 +20°C° 2.6 mm 2 mps 676 mmHg 88%
    20:00 +19°C° 0.1 mm 2 mps 676 mmHg 85%
    21:00 +19°C° 0.1 mm 2 mps 675 mmHg 81%
    22:00 +20°C° 0.1 mm 1 mps 675 mmHg 77%
    23:00 +19°C° 0.1 mm 1 mps 675 mmHg 77%

    27 July, Saturday

    Time Temperature Precipitation Wind Pressure Humidity
    00:00 +19°C° 0.1 mm 1 mps 675 mmHg 77%
    01:00 +19°C° 0.1 mm 1 mps 675 mmHg 77%
    02:00 +18°C° 0 mm 1 mps 674 mmHg 78%
    03:00 +18°C° 0 mm 1 mps 674 mmHg 79%
    04:00 +15°C° 0 mm 0 mps 673 mmHg 79%
    05:00 +17°C° 0.1 mm 0 mps 674 mmHg 77%
    06:00 +18°C° 0.1 mm 0 mps 674 mmHg 75%
    07:00 +20°C° 0.1 mm 0 mps 674 mmHg 73%
    08:00 +23°C° 0.5 mm 1 mps 674 mmHg 70%
    09:00 +24°C° 0.5 mm 1 mps 674 mmHg 66%
    10:00 +25°C° 0.5 mm 1 mps 674 mmHg 63%
    11:00 +26°C° 1.3 mm 1 mps 674 mmHg 64%
    12:00 +26°C° 1.3 mm 1 mps 674 mmHg 65%
    13:00 +26°C° 1.3 mm 1 mps 673 mmHg 67%
    14:00 +25°C° 2 mm 1 mps 673 mmHg 72%
    15:00 +24°C° 2 mm 2 mps 673 mmHg 77%
    16:00 +23°C° 2 mm 2 mps 672 mmHg 82%
    17:00 +21°C° 1.6 mm 2 mps 672 mmHg 87%
    18:00 +21°C° 1.6 mm 1 mps 672 mmHg 92%
    19:00 +20°C° 1.6 mm 1 mps 672 mmHg 96%
    20:00 +19°C° 4.4 mm 1 mps 672 mmHg 97%
    21:00 +19°C° 4.4 mm 1 mps 672 mmHg 97%
    22:00 +18°C° 4.4 mm 1 mps 672 mmHg 97%
    23:00 +18°C° 1.8 mm 1 mps 672 mmHg 97%

    28 July, Sunday

    Time Temperature Precipitation Wind Pressure Humidity
    00:00 +16°C° 1.8 mm 1 mps 672 mmHg 97%
    01:00 +15°C° 1.8 mm 0 mps 672 mmHg 97%
    02:00 +16°C° 1 mm 1 mps 672 mmHg 97%
    03:00 +16°C° 1 mm 1 mps 672 mmHg 98%
    04:00 +16°C° 1 mm 1 mps 672 mmHg 98%
    05:00 +16°C° 2.6 mm 1 mps 672 mmHg 98%
    06:00 +16°C° 2.6 mm 1 mps 672 mmHg 98%
    07:00 +15°C° 2.6 mm 2 mps 672 mmHg 98%
    08:00 +15°C° 3 mm 1 mps 673 mmHg 98%
    09:00 +15°C° 3 mm 1 mps 673 mmHg 98%
    10:00 +15°C° 3 mm 1 mps 673 mmHg 98%
    11:00 +15°C° 1.4 mm 1 mps 673 mmHg 97%
    12:00 +15°C° 1.4 mm 1 mps 674 mmHg 97%
    13:00 +15°C° 1.4 mm 1 mps 674 mmHg 97%
    14:00 +15°C° 0.3 mm 1 mps 674 mmHg 96%
    15:00 +15°C° 0.3 mm 1 mps 674 mmHg 96%
    16:00 +15°C° 0.3 mm 1 mps 674 mmHg 96%
    17:00 +15°C° 0.1 mm 2 mps 675 mmHg 96%
    18:00 +15°C° 0.1 mm 2 mps 675 mmHg 96%
    19:00 +15°C° 0.1 mm 2 mps 675 mmHg 96%
    20:00 +15°C° 0 mm 1 mps 675 mmHg 97%
    21:00 +15°C° 0 mm 1 mps 676 mmHg 97%
    22:00 +15°C° 0 mm 1 mps 676 mmHg 98%
    23:00 +15°C° 0 mm 1 mps 676 mmHg 98%

    29 July, Monday

    Time Temperature Precipitation Wind Pressure Humidity
    00:00 +14°C° 0 mm 1 mps 676 mmHg 98%
    01:00 +14°C° 0 mm 1 mps 676 mmHg 98%
    02:00 +14°C° 0 mm 1 mps 676 mmHg 98%
    03:00 +14°C° 0 mm 1 mps 676 mmHg 97%
    04:00 +13°C° 0 mm 0 mps 676 mmHg 97%
    05:00 +14°C° 0 mm 0 mps 676 mmHg 94%
    06:00 +15°C° 0 mm 0 mps 676 mmHg 92%
    07:00 +15°C° 0 mm 0 mps 677 mmHg 89%
    08:00 +17°C° 0 mm 0 mps 677 mmHg 82%
    09:00 +21°C° 0 mm 1 mps 678 mmHg 76%
    10:00 +22°C° 0 mm 1 mps 678 mmHg 70%
    11:00 +24°C° 0 mm 1 mps 678 mmHg 67%
    12:00 +25°C° 0 mm 1 mps 679 mmHg 64%
    13:00 +26°C° 0 mm 2 mps 679 mmHg 61%
    14:00 +25°C° 0 mm 2 mps 679 mmHg 64%
    15:00 +25°C° 0 mm 2 mps 679 mmHg 66%
    16:00 +25°C° 0 mm 2 mps 679 mmHg 68%
    17:00 +24°C° 0 mm 1 mps 679 mmHg 74%
    18:00 +23°C° 0 mm 1 mps 679 mmHg 80%
    19:00 +23°C° 0 mm 1 mps 679 mmHg 87%
    20:00 +21°C° 0 mm 1 mps 679 mmHg 90%
    21:00 +20°C° 0 mm 1 mps 679 mmHg 93%
    22:00 +16°C° 0 mm 0 mps 679 mmHg 96%
    23:00 +16°C° 0 mm 0 mps 679 mmHg 95%
    Show more